Sign In / Sign Up
 
 
Long Long Journey Regatta. Leg 65. 30/03 - 05/04



Race Date (UTC) # I place II place III place Track
Race4584 2020-04-02 18:59:35 8 ITA 24 play off ITA200 The Great Escape
Race4583 2020-04-02 18:58:40 4 3v Ecovelaplay suriv bucanero
Race4582 2020-04-02 18:57:57 8 BORA RN harel_itzhak Windwillow
Race4581 2020-04-02 18:57:12 8 morjeplovec WONLOVE The Spirit
Race4580 2020-04-02 18:56:44 8 kfirbarisr127 izziconquer RUS-96
Race4579 2020-04-02 18:56:01 8 Polina I.G.Npp go
Race4578 2020-04-02 18:55:24 8 pokey GonzaloLOTA jager
Race4577 2020-04-02 18:54:13 8 Iya Fancy ITA 1848
Race4576 2020-04-02 18:53:35 8 MAGJA Ghost The Great Escape
Race4575 2020-04-02 18:53:04 8 doufys revenge BORA RN
Race4574 2020-04-02 18:52:43 8 BUL 136628 bucanero Sirocco
Race4573 2020-04-02 18:51:41 8 The Spirit Windwillow ITA 77
Race4572 2020-04-02 18:51:11 8 UKRAINE morjeplovec freetime
Race4571 2020-04-02 18:50:20 8 Flash I.G.Npp K2T
Race4570 2020-04-02 18:50:02 8 GonzaloLOTA go ELIOTLUCAS 1
Race4569 2020-04-02 18:49:25 8 ITA 1848 pokey michael.k
Race4568 2020-04-02 18:48:35 8 Zephyr fr4226 ITA1973
Race4567 2020-04-02 18:47:54 8 BORA RN Ghost moro fragolina
Race4566 2020-04-02 18:47:16 8 La polla MAGJA LILO11
Race4565 2020-04-02 18:46:15 8 The Spirit Windwillow suriv
Race4564 2020-04-02 18:45:42 8 UKRAINE WONLOVE wanderer
Race4563 2020-04-02 18:45:26 8 000 morjeplovec Cobra
Race4562 2020-04-02 18:44:48 8 nevo888 I.G.Npp Jaguar Cat
Race4561 2020-04-02 18:44:12 8 twist Bacchanallia K2T
Race4560 2020-04-02 18:43:33 8 Rosen Kavalier Humbug pokey
Race4559 2020-04-02 18:42:50 8 RUS-96 izziconquer X X X
Race4558 2020-04-02 18:41:47 8 HuoDo Aquaphobia jager
Race4557 2020-04-02 18:41:37 8 revenge suriv MAGJA
Race4556 2020-04-02 18:40:11 8 Windwillow ELIOTLUCAS 1 The Spirit
Race4555 2020-04-02 18:39:29 8 morjeplovec 000 Cobra
Race4554 2020-04-02 18:38:12 8 Attilio Actarus nevo888
Race4553 2020-04-02 18:36:54 8 UKRAINE Rosen Kavalier go
Race4552 2020-04-02 18:36:09 8 Zephyr SicilyKayak Santacompanha
Race4551 2020-04-02 18:35:39 8 Aquaphobia izziconquer suriv
Race4550 2020-04-02 18:34:30 8 HuoDo Tigerloo34 Trump virus
Race4549 2020-04-02 18:33:35 8 Windwillow morjeplovec Speedy
Race4548 2020-04-02 18:32:41 8 mustafa Actarus Jack Sparrow
Race4547 2020-04-02 18:31:27 8 go bucanero Feeling
Race4546 2020-04-02 18:30:41 8 getnair Chinook Jaguar Cat
Race4545 2020-04-02 18:29:57 8 shmell SicilyKayak ELIOTLUCAS 1
Race4544 2020-04-02 18:29:19 8 ITA 24 ProTEZ Zephyr
Race4543 2020-04-02 18:28:30 8 Tigerloo34 runny funny BUL 136628
Race4542 2020-04-02 18:27:26 8 HuoDo The Spirit Fabio
Race4541 2020-04-02 18:26:05 8 mustafa Attilio grenada
Race4540 2020-04-02 18:25:11 8 bucanero Feeling Astrolab
Race4539 2020-04-02 18:24:09 8 Chinook The Great Escape shmell
Race4538 2020-04-02 18:23:02 8 pokey Molineasails nevo888
Race4537 2020-04-02 18:21:53 8 Nautigus kfirbarisr127 WONLOVE
Race4536 2020-04-02 18:21:18 8 SicilyKayak Hudsucker ITA 24
Race4535 2020-04-02 18:20:35 8 RUS-96 GonzaloLOTA izziconquer
Race4534 2020-04-02 18:19:22 8 Zephyr Capitano getnair
Race4533 2020-04-02 18:18:43 8 shmell Santacompanha Feeling
Race4532 2020-04-02 18:17:09 8 Attilio Speedy Atrain
Race4531 2020-04-02 18:16:00 8 Saba13 Sambaqui man FlatEarth
Race4530 2020-04-02 18:15:17 8 avventura jlaw K2T
Race4529 2020-04-02 18:14:34 8 piro lita Albarone SicilyKayak
Race4528 2020-04-02 18:13:43 8 GonzaloLOTA Capitano Anatoli1226
Race4527 2020-04-02 18:12:30 8 Anna090 RUS-96 getnair
Race4526 2020-04-02 18:11:27 8 bucanero Attilio barbicha
Race4525 2020-04-02 18:10:22 8 Sambaqui man LAMPO Saba13
Race4524 2020-04-02 18:09:38 8 Lazy Big Rift The Great Escape
Race4523 2020-04-02 18:09:09 8 Senecio captain pugwash kfirbarisr127
Race4522 2020-04-02 18:08:16 8 Albarone goldenapple Fabio
Race4521 2020-04-02 18:07:10 8 Nik GonzaloLOTA batana boat
Race4520 2020-04-02 18:06:28 8 piro lita G&S DOB Anatoli1226
Race4519 2020-04-02 18:05:25 8 P.M.F. Lemania bucanero
Race4518 2020-04-02 18:04:19 5 fair Big Rift LAMPO
Race4517 2020-04-02 18:03:44 8 Tigerloo34 Y.C. Tempio Pausania FirstStrike
Race4516 2020-04-02 18:03:11 8 shmell pascap captain pugwash
Race4515 2020-04-02 18:02:25 8 The Great Escape avventura K2T
Race4514 2020-04-02 18:01:29 8 Nik GonzaloLOTA Trump virus
Race4513 2020-04-02 18:00:26 8 Capitano ossodiseppia MRM
Race4512 2020-04-02 17:58:50 8 Bele' Lemania SicilyKayak
Race4511 2020-04-02 17:58:05 8 Y.C. Tempio Pausania Tigerloo34 Drifter
Race4510 2020-04-02 17:56:56 8 Senecio captain pugwash LAMPO
Race4509 2020-04-02 17:56:11 8 Attilio Amateur Anahita_j24
Race4508 2020-04-02 17:55:26 3 The Great Escape GonzaloLOTA ENJOY
Race4507 2020-04-02 17:54:42 8 piro lita ISR-391 avventura
Race4506 2020-04-02 17:54:05 8 allanello Mus403 Lemania
Race4505 2020-04-02 17:53:08 8 Nik Jordiet The Doris
Race4504 2020-04-02 17:52:04 8 Trump virus Y.C. Tempio Pausania SUR
Race4503 2020-04-02 17:51:05 8 Senecio captain pugwash Attilio
Race4502 2020-04-02 17:49:55 8 bipbip Sambaqui man Amateur
Race4501 2020-04-02 17:49:10 8 Snipe30396 Capitano Mini4.1
Race4500 2020-04-02 17:48:14 8 Lemania batana boat E Daje
Race4499 2020-04-02 17:47:33 8 HuoDo Jordiet The Great Escape
Race4498 2020-04-02 17:46:51 8 The Spirit Zephyr doufys
Race4497 2020-04-02 17:45:26 8 Nik Senecio SUR
Race4496 2020-04-02 17:44:28 8 RCLaser27 Mirca hamanishi
Race4495 2020-04-02 17:43:52 8 crazy Snipe30396 Y.C. Tempio Pausania
Race4494 2020-04-02 17:43:16 8 GonzaloLOTA E Daje Aggressive
Race4493 2020-04-02 17:42:32 8 barbarians Tatan bipbip
Race4492 2020-04-02 17:41:46 8 Bele' Jordiet Mini4.1
Race4491 2020-04-02 17:41:22 8 fiba ITA 24 The Spirit
Race4490 2020-04-02 17:40:29 8 Eureka IV kili hau K2T
Race4489 2020-04-02 17:39:32 8 Nik LILO11 SIRIUS
Race4488 2020-04-02 17:38:31 8 ELBETICO ELIOTLUCAS 1 Eisbaren Beauport
Race4487 2020-04-02 17:37:47 8 Crimea #BattleFox Fabio
Race4486 2020-04-02 17:37:05 8 GonzaloLOTA SicilyKayak Amateur
Race4485 2020-04-02 17:36:44 8 000 Aggressive Capitano